TimePDT,TemperatureF,Dew PointF,Humidity,Sea Level PressureIn,VisibilityMPH,Wind Direction,Wind SpeedMPH,Gust SpeedMPH,PrecipitationIn,Events,Conditions,WindDirDegrees,DateUTC
12:56 AM,71.1,43.0,36,29.94,10.0,West,10.4,-,N/A,,Clear,270,2013-08-11 07:56:00
1:56 AM,70.0,42.1,36,29.93,10.0,West,5.8,-,N/A,,Clear,270,2013-08-11 08:56:00
2:56 AM,70.0,44.1,39,29.94,10.0,West,12.7,-,N/A,,Clear,280,2013-08-11 09:56:00
3:56 AM,68.0,44.1,42,29.94,10.0,West,10.4,-,N/A,,Clear,270,2013-08-11 10:56:00
4:56 AM,68.0,46.0,45,29.94,10.0,West,11.5,-,N/A,,Clear,270,2013-08-11 11:56:00
5:56 AM,66.0,46.0,48,29.95,10.0,West,8.1,-,N/A,,Clear,270,2013-08-11 12:56:00
6:56 AM,68.0,46.0,45,29.96,10.0,West,6.9,-,N/A,,Clear,270,2013-08-11 13:56:00
7:56 AM,73.9,46.0,37,29.96,10.0,West,9.2,-,N/A,,Clear,270,2013-08-11 14:56:00
8:56 AM,79.0,43.0,28,29.95,10.0,WNW,9.2,-,N/A,,Clear,290,2013-08-11 15:56:00
9:56 AM,82.0,39.9,22,29.95,10.0,Variable,3.5,-,N/A,,Clear,0,2013-08-11 16:56:00
10:56 AM,84.9,37.9,19,29.94,10.0,WNW,5.8,-,N/A,,Clear,300,2013-08-11 17:56:00
11:56 AM,88.0,36.0,16,29.92,10.0,NW,5.8,-,N/A,,Clear,310,2013-08-11 18:56:00
12:56 PM,91.0,35.1,14,29.91,10.0,Calm,Calm,-,N/A,,Clear,0,2013-08-11 19:56:00
1:56 PM,93.0,34.0,12,29.89,10.0,South,8.1,-,N/A,,Clear,190,2013-08-11 20:56:00
2:56 PM,91.9,36.0,14,29.87,10.0,Calm,Calm,-,N/A,,Clear,0,2013-08-11 21:56:00
3:56 PM,93.9,41.0,16,29.86,10.0,WSW,8.1,23.0,N/A,,Clear,240,2013-08-11 22:56:00
4:56 PM,93.0,42.1,17,29.85,10.0,WSW,16.1,25.3,N/A,,Clear,240,2013-08-11 23:56:00
5:56 PM,90.0,44.1,20,29.85,10.0,WSW,21.9,-,N/A,,Clear,240,2013-08-12 00:56:00
6:56 PM,84.0,45.0,25,29.87,10.0,WSW,23.0,26.5,N/A,,Clear,250,2013-08-12 01:56:00
7:56 PM,79.0,46.9,32,29.88,10.0,WSW,16.1,-,N/A,,Clear,250,2013-08-12 02:56:00
8:56 PM,75.9,46.0,35,29.89,10.0,WSW,16.1,-,N/A,,Clear,250,2013-08-12 03:56:00
9:56 PM,73.9,46.0,37,29.91,10.0,WSW,8.1,-,N/A,,Clear,250,2013-08-12 04:56:00
10:56 PM,73.9,44.1,34,29.91,10.0,West,11.5,-,N/A,,Clear,260,2013-08-12 05:56:00
11:56 PM,73.9,42.1,32,29.90,10.0,West,10.4,-,N/A,,Clear,260,2013-08-12 06:56:00